GW4824 Weather Reports


Display with metric or nautical units.
time (UTC)temp
F
wind
direction
speed
MPH
gust
MPH
rain 1hr
in
rain 24hr
in
rain mn
in
humidity
%
barometer
mb
20260903065306 74 101 0.0 0.0 0.00 0.00 0.00 94 1016.1
20260903064802 74 101 0.0 0.0 0.00 0.00 0.00 93 1016.1
20260903064258 74 101 0.0 0.0 0.00 0.00 0.00 93 1016.1
20260903063754 74 101 0.0 0.0 0.00 0.00 0.00 93 1016.1
20260903063248 74 101 0.0 0.0 0.00 0.00 0.00 93 1016.2
20260903062739 74 101 0.0 0.0 0.00 0.00 0.00 93 1015.9
20260903062238 74 101 0.0 0.0 0.00 0.00 0.00 93 1016.2
20260903061735 74 101 0.0 0.0 0.00 0.00 0.00 93 1016.2
20260903061233 74 101 0.0 0.0 0.00 0.00 0.00 93 1016.1
20260903060729 74 101 0.0 0.0 0.00 0.00 0.00 92 1016.1
20260903060229 74 101 0.0 0.0 0.00 0.00 0.00 92 1016.1
20260903055726 74 101 0.0 0.0 0.00 0.00 0.00 92 1016.1
20260903055225 74 101 0.0 0.0 0.00 0.00 0.00 92 1016.1
20260903054720 75 101 0.0 0.0 0.00 0.00 0.00 91 1016.2
20260903054215 75 101 0.0 0.0 0.00 0.00 0.00 91 1016.2
20260903053707 75 106 0.0 0.0 0.00 0.00 0.00 91 1016.2
20260903053206 75 106 0.0 0.0 0.00 0.00 0.00 91 1015.9
20260903052703 75 100 0.0 0.0 0.00 0.00 0.00 91 1016.1
20260903052158 75 97 0.0 0.0 0.00 0.00 0.00 91 1015.9
20260903051653 75 97 0.0 0.0 0.00 0.00 0.00 90 1015.8
20260903051148 75 97 0.0 0.0 0.00 0.00 0.00 90 1015.5
20260903050644 75 96 0.0 0.0 0.00 0.00 0.00 90 1015.7
20260903050137 75 96 0.0 0.0 0.00 0.00 0.00 91 1015.8
20260903045637 74 101 0.0 0.0 0.00 0.00 0.00 92 1015.5
20260903045134 74 101 0.0 0.0 0.00 0.00 0.00 92 1015.8
20260903044629 74 101 0.0 0.0 0.00 0.00 0.00 92 1015.4
20260903044125 74 101 0.0 0.0 0.00 0.00 0.00 92 1015.5
20260903043622 74 101 0.0 0.0 0.00 0.00 0.00 92 1015.3
20260903043120 75 101 0.0 0.0 0.00 0.00 0.00 91 1015.3
20260903042620 75 101 0.0 0.0 0.00 0.00 0.00 91 1015.2
20260903042115 75 101 0.0 0.0 0.00 0.00 0.00 90 1015.5
20260903041612 75 101 0.0 0.0 0.00 0.00 0.00 90 1015.4
20260903041108 75 101 0.0 0.0 0.00 0.00 0.00 90 1015.4
20260903040606 75 101 0.0 0.0 0.00 0.00 0.00 89 1015.3
20260903040103 75 101 0.0 0.0 0.00 0.00 0.00 90 1015.4
20260903035558 75 101 0.0 0.0 0.00 0.00 0.00 89 1015.5
20260903035054 75 101 0.0 0.0 0.00 0.00 0.00 89 1015.3
20260903034548 75 101 0.0 0.0 0.00 0.00 0.00 89 1015.2
20260903034044 75 98 0.0 0.0 0.00 0.00 0.00 89 1015.3
20260903033538 75 96 0.0 0.0 0.00 0.00 0.00 89 1015.2
20260903033034 75 96 0.0 0.0 0.00 0.00 0.00 89 1015.3
20260903032529 75 103 0.0 0.0 0.00 0.00 0.00 89 1015.5
20260903032024 75 103 0.0 0.0 0.00 0.00 0.00 89 1015.4
20260903031524 75 103 0.0 0.0 0.00 0.00 0.00 89 1015.5
20260903031019 75 103 0.0 0.0 0.00 0.00 0.00 89 1015.7
20260903030514 75 103 0.0 0.0 0.00 0.00 0.00 89 1015.9
20260903030011 75 103 0.0 0.0 0.00 0.00 0.00 89 1015.9
20260903025506 75 103 0.0 0.0 0.00 0.00 0.00 88 1015.8
20260903025001 76 103 0.0 0.0 0.00 0.00 0.00 88 1016.0
20260903024500 76 103 0.0 0.0 0.00 0.00 0.00 87 1016.2
20260903023955 76 100 0.0 0.0 0.00 0.00 0.00 87 1016.1
20260903023451 76 100 0.0 0.0 0.00 0.00 0.00 86 1016.2
20260903022946 76 100 0.0 0.0 0.00 0.00 0.00 86 1016.1
20260903022445 77 100 0.0 0.0 0.00 0.00 0.00 85 1016.2
20260903021943 77 99 0.0 0.0 0.00 0.00 0.00 84 1016.2
20260903021439 77 106 0.0 0.0 0.00 0.00 0.00 84 1016.0
20260903020934 77 97 0.0 0.0 0.00 0.00 0.00 84 1016.2
20260903020429 77 102 0.0 0.0 0.00 0.00 0.00 84 1016.1
20260903015924 77 98 0.0 0.0 0.00 0.00 0.00 84 1016.3
20260903015420 77 94 0.0 0.0 0.00 0.00 0.00 85 1016.1
20260903014916 77 100 0.0 0.0 0.00 0.00 0.00 85 1016.1
20260903014414 77 100 0.0 0.0 0.00 0.00 0.00 85 1016.1
20260903013910 77 100 0.0 0.0 0.00 0.00 0.00 85 1016.1
20260903013409 77 100 0.0 0.0 0.00 0.00 0.00 85 1016.2
20260903012909 77 100 0.0 0.0 0.00 0.00 0.00 84 1016.3
20260903012408 78 100 0.0 0.0 0.00 0.00 0.00 84 1016.2
20260903011907 78 100 0.0 0.0 0.00 0.00 0.00 85 1016.1
20260903011402 78 100 0.0 0.0 0.00 0.00 0.00 85 1016.0
20260903010857 78 100 0.0 0.0 0.00 0.00 0.00 84 1016.0
20260903010353 78 100 0.0 0.0 0.00 0.00 0.00 85 1016.1
20260903005850 78 100 0.0 0.0 0.00 0.00 0.00 85 1016.0
20260903005346 78 100 0.0 0.0 0.00 0.00 0.00 85 1015.9
20260903004843 78 100 0.0 0.0 0.00 0.00 0.00 85 1015.9
20260903004338 78 100 0.0 0.0 0.00 0.00 0.00 85 1015.9
20260903003833 78 100 0.0 0.0 0.00 0.00 0.00 86 1015.9
20260903003332 79 100 0.0 0.0 0.00 0.00 0.00 86 1015.7
20260903002832 79 100 0.0 0.0 0.00 0.00 0.00 84 1015.8
20260903002327 79 100 0.0 0.0 0.00 0.00 0.00 84 1015.7
20260903001822 79 100 0.0 0.0 0.00 0.00 0.00 83 1015.7
20260903001317 80 100 0.0 0.0 0.00 0.00 0.00 83 1015.5
20260903000812 80 100 0.0 0.0 0.00 0.00 0.00 82 1015.7
20260903000306 80 100 0.0 0.0 0.00 0.00 0.00 82 1015.8
20260902235804 81 100 0.0 0.0 0.00 0.00 0.00 82 1015.5
20260902235300 81 100 0.0 0.0 0.00 0.00 0.00 81 1015.5
20260902234754 81 100 0.0 0.0 0.00 0.00 0.00 80 1015.7
20260902234253 82 96 0.0 0.0 0.00 0.00 0.00 80 1015.5
20260902233747 82 96 0.0 0.0 0.00 0.00 0.00 79 1015.5
20260902233242 82 103 0.0 0.0 0.00 0.00 0.00 79 1015.5
20260902232741 82 99 0.0 0.0 0.00 0.00 0.00 78 1015.5
20260902232240 83 103 0.0 0.0 0.00 0.00 0.00 77 1015.5
20260902231740 83 103 0.0 0.0 0.00 0.00 0.00 77 1015.4
20260902231235 83 103 0.0 0.0 0.00 0.00 0.00 76 1015.5
20260902230735 84 103 0.0 0.0 0.00 0.00 0.00 76 1015.5
20260902230234 84 103 0.0 0.0 0.00 0.00 0.00 75 1015.5
20260902225729 84 110 0.0 0.0 0.00 0.00 0.00 75 1015.5
20260902225224 84 93 0.0 0.0 0.00 0.00 0.00 74 1015.5
20260902224722 84 102 0.0 0.0 0.00 0.00 0.00 74 1015.4
20260902224218 85 105 0.0 0.0 0.00 0.00 0.00 74 1015.5
20260902223714 85 102 0.0 0.0 0.00 0.00 0.00 74 1015.7
20260902223214 85 100 0.0 0.0 0.00 0.00 0.00 72 1015.7
20260902222713 85 99 0.0 0.0 0.00 0.00 0.00 72 1015.4
20260902222213 85 101 0.0 0.0 0.00 0.00 0.00 71 1015.3
20260902221707 86 121 0.0 1.0 0.00 0.00 0.00 73 1015.4
20260902221206 86 89 0.0 0.0 0.00 0.00 0.00 75 1015.5
20260902220703 87 94 0.0 0.0 0.00 0.00 0.00 73 1015.4
20260902220203 87 70 0.0 0.0 0.00 0.00 0.00 71 1015.4
20260902215658 88 105 0.0 0.0 0.00 0.00 0.00 70 1015.5
20260902215154 88 106 0.0 0.0 0.00 0.00 0.00 68 1015.8
20260902214649 87 107 0.0 0.0 0.00 0.00 0.00 69 1015.8
20260902214148 88 69 0.0 0.0 0.00 0.00 0.00 68 1015.7
20260902213643 88 108 0.0 0.0 0.00 0.00 0.00 67 1015.7
20260902213143 88 120 0.0 0.0 0.00 0.00 0.00 69 1015.8
20260902212638 89 88 0.0 1.0 0.00 0.00 0.00 67 1015.8
20260902212134 90 87 0.0 0.0 0.00 0.00 0.00 69 1015.8
20260902211631 90 106 0.0 0.0 0.00 0.00 0.00 64 1015.9
20260902211125 91 72 0.0 1.0 0.00 0.00 0.00 62 1015.8
20260902210625 91 73 1.0 1.0 0.00 0.00 0.00 63 1015.9
20260902210120 93 183 2.0 3.0 0.00 0.00 0.00 60 1016.1
20260902205619 92 109 0.0 0.0 0.00 0.00 0.00 62 1016.0
20260902205114 93 120 0.0 0.0 0.00 0.00 0.00 58 1016.0
20260902204608 92 126 0.0 0.0 0.00 0.00 0.00 67 1016.2
20260902204103 92 104 1.0 2.0 0.00 0.00 0.00 60 1016.1
20260902203558 92 299 2.0 2.0 0.00 0.00 0.00 59 1016.3
20260902203057 92 98 0.0 0.0 0.00 0.00 0.00 61 1016.2
20260902202553 93 169 0.0 1.0 0.00 0.00 0.00 63 1016.2
20260902202050 93 93 0.0 1.0 0.00 0.00 0.00 60 1016.3
20260902201545 92 211 1.0 1.0 0.00 0.00 0.00 59 1016.4
20260902201039 93 158 1.0 2.0 0.00 0.00 0.00 63 1016.3
20260902200534 93 116 0.0 0.0 0.00 0.00 0.00 60 1016.3
20260902200030 93 117 0.0 0.0 0.00 0.00 0.00 61 1016.3
20260902195526 93 151 1.0 2.0 0.00 0.00 0.00 57 1016.6
20260902195024 93 138 0.0 1.0 0.00 0.00 0.00 62 1016.5
20260902194524 93 141 1.0 1.0 0.00 0.00 0.00 58 1016.9
20260902194019 92 130 1.0 1.0 0.00 0.00 0.00 61 1016.7
20260902193515 92 158 2.0 2.0 0.00 0.00 0.00 61 1017.0
20260902193015 92 94 2.0 2.0 0.00 0.00 0.00 64 1016.7
20260902192514 93 312 1.0 1.0 0.00 0.00 0.00 65 1016.8
20260902192013 93 122 0.0 0.0 0.00 0.00 0.00 60 1016.7
20260902191509 93 158 2.0 2.0 0.00 0.00 0.00 64 1016.8
20260902191008 92 125 1.0 1.0 0.00 0.00 0.00 65 1017.0
20260902190504 93 128 0.0 0.0 0.00 0.00 0.00 61 1016.9
20260902185959 93 162 1.0 1.0 0.00 0.00 0.00 63 1017.1
20260902185455 93 129 0.0 0.0 0.00 0.00 0.00 62 1017.1
20260902184950 92 126 2.0 2.0 0.00 0.00 0.00 61 1017.1
20260902184445 92 222 1.0 1.0 0.00 0.00 0.00 62 1017.2
20260902183941 92 284 1.0 2.0 0.00 0.00 0.00 60 1017.2
20260902183437 92 130 0.0 1.0 0.00 0.00 0.00 63 1017.3
20260902182933 91 118 1.0 1.0 0.00 0.00 0.00 63 1017.0
20260902182429 92 140 1.0 2.0 0.00 0.00 0.00 64 1017.5
20260902181926 93 137 2.0 3.0 0.00 0.00 0.00 60 1017.4
20260902181421 92 129 1.0 1.0 0.00 0.00 0.00 70 1017.4
20260902180920 92 93 0.0 1.0 0.00 0.00 0.00 64 1017.4
20260902180416 92 299 1.0 1.0 0.00 0.00 0.00 67 1017.4
20260902175911 91 160 1.0 1.0 0.00 0.00 0.00 65 1017.4
20260902175406 91 128 2.0 3.0 0.00 0.00 0.00 66 1017.6
20260902174901 91 125 2.0 3.0 0.00 0.00 0.00 65 1018.0
20260902174359 91 139 1.0 1.0 0.00 0.00 0.00 66 1018.0
20260902173849 91 133 0.0 1.0 0.00 0.00 0.00 69 1018.0
20260902173348 90 126 0.0 0.0 0.00 0.00 0.00 65 1018.1
20260902172843 90 167 1.0 1.0 0.00 0.00 0.00 67 1018.0
20260902172342 89 148 2.0 2.0 0.00 0.00 0.00 67 1018.0
20260902171838 89 135 2.0 2.0 0.00 0.00 0.00 72 1018.1
20260902171333 90 126 1.0 1.0 0.00 0.00 0.00 69 1018.0
20260902170829 91 122 0.0 0.0 0.00 0.00 0.00 66 1017.9
20260902170324 90 104 0.0 0.0 0.00 0.00 0.00 69 1018.3
20260902165820 89 93 1.0 2.0 0.00 0.00 0.00 69 1018.0
20260902165319 89 129 1.0 1.0 0.00 0.00 0.00 71 1018.1
20260902164814 89 108 1.0 1.0 0.00 0.00 0.00 69 1018.0
20260902164309 89 159 2.0 3.0 0.00 0.00 0.00 67 1018.1
20260902163803 89 171 2.0 3.0 0.00 0.00 0.00 71 1018.1
20260902163303 89 134 0.0 0.0 0.00 0.00 0.00 71 1018.0
20260902162802 89 121 1.0 2.0 0.00 0.00 0.00 70 1018.1
20260902162256 88 129 0.0 1.0 0.00 0.00 0.00 73 1018.2
20260902161756 89 161 1.0 2.0 0.00 0.00 0.00 74 1018.2
20260902161252 88 98 0.0 1.0 0.00 0.00 0.00 69 1018.3
20260902160748 88 150 1.0 2.0 0.00 0.00 0.00 70 1018.2
20260902160248 88 164 2.0 2.0 0.00 0.00 0.00 70 1018.3
20260902155746 88 159 1.0 2.0 0.00 0.00 0.00 71 1018.2
20260902155245 88 108 0.0 1.0 0.00 0.00 0.00 70 1018.2
20260902154741 88 138 0.0 0.0 0.00 0.00 0.00 69 1018.4
20260902154237 88 152 2.0 2.0 0.00 0.00 0.00 71 1018.4
20260902153735 88 183 0.0 0.0 0.00 0.00 0.00 69 1018.2
20260902153235 87 112 1.0 1.0 0.00 0.00 0.00 70 1018.3
20260902152731 87 139 2.0 2.0 0.00 0.00 0.00 69 1018.2
20260902152227 87 357 0.0 1.0 0.00 0.00 0.00 71 1018.3
20260902151722 87 113 0.0 0.0 0.00 0.00 0.00 73 1018.3
20260902151217 87 133 0.0 1.0 0.00 0.00 0.00 72 1018.2
20260902150712 86 131 1.0 1.0 0.00 0.00 0.00 74 1018.2
20260902150208 86 141 0.0 0.0 0.00 0.00 0.00 72 1018.3
20260902145707 86 107 1.0 1.0 0.00 0.00 0.00 74 1018.1
20260902145207 85 163 1.0 2.0 0.00 0.00 0.00 76 1018.3
20260902144704 85 105 0.0 0.0 0.00 0.00 0.00 74 1018.3
20260902144159 85 108 0.0 0.0 0.00 0.00 0.00 75 1018.3
20260902143653 85 111 1.0 1.0 0.00 0.00 0.00 78 1018.2
20260902143148 84 103 1.0 1.0 0.00 0.00 0.00 76 1018.3
20260902142644 83 116 0.0 1.0 0.00 0.00 0.00 80 1018.1
20260902142140 82 119 0.0 0.0 0.00 0.00 0.00 82 1017.9
20260902141639 82 112 0.0 1.0 0.00 0.00 0.00 82 1018.1
20260902141135 82 110 0.0 0.0 0.00 0.00 0.00 82 1018.0
20260902140630 83 146 0.0 1.0 0.00 0.00 0.00 80 1017.8
20260902140125 83 110 0.0 0.0 0.00 0.00 0.00 80 1018.0
20260902135624 83 108 0.0 0.0 0.00 0.00 0.00 80 1017.9
20260902135119 84 135 1.0 1.0 0.00 0.00 0.00 80 1017.8
20260902134615 83 108 0.0 0.0 0.00 0.00 0.00 77 1018.0
20260902134109 83 126 0.0 0.0 0.00 0.00 0.00 80 1018.1
20260902133604 81 118 0.0 1.0 0.00 0.00 0.00 81 1018.2
20260902133059 81 115 0.0 0.0 0.00 0.00 0.00 83 1018.0
20260902132554 80 132 1.0 1.0 0.00 0.00 0.00 83 1018.1
20260902132049 78 113 0.0 0.0 0.00 0.00 0.00 87 1018.1
20260902131546 77 117 0.0 1.0 0.00 0.00 0.00 90 1018.3
20260902131045 77 113 0.0 0.0 0.00 0.00 0.00 90 1018.1
20260902130541 77 114 0.0 0.0 0.00 0.00 0.00 91 1018.0
20260902130036 77 117 0.0 0.0 0.00 0.00 0.00 89 1018.0
20260902125532 77 114 0.0 0.0 0.00 0.00 0.00 89 1018.0
20260902125027 77 112 0.0 0.0 0.00 0.00 0.00 89 1017.9
20260902124524 76 112 0.0 0.0 0.00 0.00 0.00 92 1018.0
20260902124018 76 111 0.0 0.0 0.00 0.00 0.00 91 1017.9
20260902123514 75 111 0.0 0.0 0.00 0.00 0.00 90 1017.8
20260902123014 75 111 0.0 0.0 0.00 0.00 0.00 96 1017.8
20260902122509 75 111 0.0 0.0 0.00 0.00 0.00 97 1017.8
20260902122004 73 111 0.0 0.0 0.00 0.00 0.00 98 1017.7
20260902121459 73 111 0.0 0.0 0.00 0.00 0.00 99 1017.8
20260902120954 72 113 0.0 0.0 0.00 0.00 0.00 99 1017.6
20260902120450 71 113 0.0 0.0 0.00 0.00 0.00 99 1017.7
20260902115950 71 112 0.0 0.0 0.00 0.00 0.00 99 1017.6
20260902115446 71 115 0.0 0.0 0.00 0.00 0.00 99 1017.7
20260902114942 71 113 0.0 0.0 0.00 0.00 0.00 99 1017.6
20260902114432 71 113 0.0 0.0 0.00 0.00 0.00 99 1017.6
20260902113927 71 108 0.0 0.0 0.00 0.00 0.00 99 1017.5
20260902113423 70 105 0.0 0.0 0.00 0.00 0.00 99 1017.5
20260902112922 70 106 0.0 0.0 0.00 0.00 0.00 99 1017.5
20260902112419 70 106 0.0 0.0 0.00 0.00 0.00 99 1017.3
20260902111914 70 106 0.0 0.0 0.00 0.00 0.00 99 1017.5
20260902111410 70 106 0.0 0.0 0.00 0.00 0.00 99 1017.4
20260902110906 70 102 0.0 0.0 0.00 0.00 0.00 99 1017.2
20260902110402 70 114 0.0 0.0 0.00 0.00 0.00 99 1017.2
20260902105901 70 113 0.0 0.0 0.00 0.00 0.00 99 1017.2
20260902105356 70 113 0.0 0.0 0.00 0.00 0.00 99 1017.2
20260902104851 70 107 0.0 0.0 0.00 0.00 0.00 99 1017.1
20260902104347 71 107 0.0 0.0 0.00 0.00 0.00 99 1017.0
20260902103842 71 114 0.0 0.0 0.00 0.00 0.00 99 1017.2
20260902103337 71 114 0.0 0.0 0.00 0.00 0.00 99 1017.2
20260902102832 71 111 0.0 0.0 0.00 0.00 0.00 99 1017.2
20260902102330 71 114 0.0 0.0 0.00 0.00 0.00 99 1017.2
20260902101824 71 112 0.0 0.0 0.00 0.00 0.00 99 1017.1
20260902101324 71 122 0.0 0.0 0.00 0.00 0.00 99 1017.2
20260902100818 71 112 0.0 0.0 0.00 0.00 0.00 99 1017.2
20260902100319 71 112 0.0 0.0 0.00 0.00 0.00 99 1017.1
20260902095814 71 105 0.0 0.0 0.00 0.00 0.00 99 1017.1
20260902095313 71 113 0.0 0.0 0.00 0.00 0.00 99 1017.1
20260902094808 71 115 0.0 0.0 0.00 0.00 0.00 99 1017.2
20260902094304 71 117 0.0 0.0 0.00 0.00 0.00 99 1017.1
20260902093803 71 120 0.0 0.0 0.00 0.00 0.00 99 1017.3
20260902093259 71 119 0.0 0.0 0.00 0.00 0.00 99 1017.2
20260902092758 71 109 0.0 0.0 0.00 0.00 0.00 99 1017.2
20260902092253 71 106 0.0 0.0 0.00 0.00 0.00 99 1017.2
20260902091752 71 110 0.0 0.0 0.00 0.00 0.00 99 1017.2
20260902091249 71 111 0.0 0.0 0.00 0.00 0.00 98 1017.2
20260902090745 71 111 0.0 0.0 0.00 0.00 0.00 99 1017.2
20260902090245 71 109 0.0 0.0 0.00 0.00 0.00 98 1017.3
20260902085744 72 110 0.0 0.0 0.00 0.00 0.00 98 1017.3
20260902085240 72 109 0.0 0.0 0.00 0.00 0.00 98 1017.4
20260902084735 72 114 0.0 0.0 0.00 0.00 0.00 98 1017.3
20260902084232 72 112 0.0 0.0 0.00 0.00 0.00 98 1017.3
20260902083731 72 114 0.0 0.0 0.00 0.00 0.00 98 1017.2
20260902083226 72 111 0.0 0.0 0.00 0.00 0.00 98 1017.0
20260902082721 72 111 0.0 0.0 0.00 0.00 0.00 97 1017.0
20260902082218 72 111 0.0 0.0 0.00 0.00 0.00 97 1017.0
20260902081714 72 111 0.0 0.0 0.00 0.00 0.00 97 1017.0
20260902081209 72 111 0.0 0.0 0.00 0.00 0.00 97 1017.1
20260902080704 72 111 0.0 0.0 0.00 0.00 0.00 96 1017.1
20260902080200 73 110 0.0 0.0 0.00 0.00 0.00 96 1017.0
20260902075655 73 112 0.0 0.0 0.00 0.00 0.00 96 1017.0
20260902075150 73 108 0.0 0.0 0.00 0.00 0.00 96 1017.1
20260902074645 73 121 0.0 0.0 0.00 0.00 0.00 96 1016.9
20260902074140 73 114 0.0 0.0 0.00 0.00 0.00 97 1017.0
20260902073635 72 110 0.0 0.0 0.00 0.00 0.00 97 1017.1
20260902073132 72 106 0.0 0.0 0.00 0.00 0.00 97 1017.1
20260902072627 72 106 0.0 0.0 0.00 0.00 0.00 97 1017.1
20260902072124 73 104 0.0 0.0 0.00 0.00 0.00 96 1017.0
20260902071619 73 100 0.0 0.0 0.00 0.00 0.00 96 1017.1
20260902071115 73 100 0.0 0.0 0.00 0.00 0.00 96 1017.0
20260902070611 73 109 0.0 0.0 0.00 0.00 0.00 96 1017.1
20260902070105 73 109 0.0 0.0 0.00 0.00 0.00 96 1017.2
20260902065604 73 109 0.0 0.0 0.00 0.00 0.00 96 1017.1